User: anonymous   Login
Location: Gombori
(14.9797°N, 2.9419°W)
Time: 00:04:29
(UTC+00:00)
Language:

ATLAS 5 CENTAUR R/B - Orbit

View from above orbital plane
View from above orbital plane
View from above satellite
View from above satellite

Ground track
Ground track

The orbit data is extracted from the following two-line orbital elements,

1 36869U 10039B   21300.40279231  .00007223  00000-0  61768-3 0  9994
2 36869  20.1623   1.7571 4807451 354.6313   1.7042  5.99204139182213
Epoch (UTC): 27 October 2021 09:40:01
Eccentricity: 0.4807451
inclination: 20.1623°
perigee height: 270 km
apogee height: 12581 km
right ascension of ascending node: 1.7571°
argument of perigee: 354.6313°
revolutions per day: 5.99204139
mean anomaly at epoch: 1.7042°
orbit number at epoch: 18221

The dashed part of the orbit path shows where the satellite is in the earth's shadow,  

DLR